• în Republica Moldova
  • Lista ţărilor
  • Pe 7 zile
  • Temperatura apei
  • Hartă satelitară
  • Meteo pe hartă
  • Widget-uri
  • user-avatar
    Intrare

    Meteo pe oră la Mayrhofen

    Astăzi, 13 Decembrie, Miercuri

    Timp Temperatura Precipitaţii Vânt Presiune Umiditate
    00:00 -9°C° 0,3 mm 2 m/s 612 mmHg 94%
    01:00 -8°C° 0 mm 1 m/s 612 mmHg 95%
    02:00 -9°C° 0,1 mm 1 m/s 612 mmHg 94%
    03:00 -9°C° 0,1 mm 1 m/s 612 mmHg 93%
    04:00 -10°C° 0,1 mm 1 m/s 611 mmHg 92%
    05:00 -11°C° 0 mm 1 m/s 611 mmHg 91%
    06:00 -12°C° 0 mm 1 m/s 611 mmHg 90%
    07:00 -12°C° 0 mm 1 m/s 611 mmHg 88%
    08:00 -10°C° 0 mm 1 m/s 612 mmHg 85%
    09:00 -9°C° 0 mm 1 m/s 612 mmHg 83%
    10:00 -8°C° 0 mm 1 m/s 612 mmHg 80%
    11:00 -6°C° 0 mm 1 m/s 612 mmHg 77%
    12:00 -6°C° 0 mm 2 m/s 612 mmHg 75%
    13:00 -3°C° 0 mm 1 m/s 612 mmHg 71%
    14:00 -6°C° 0 mm 2 m/s 611 mmHg 75%
    15:00 -7°C° 0 mm 2 m/s 610 mmHg 79%
    16:00 -8°C° 0 mm 2 m/s 610 mmHg 83%
    17:00 -9°C° 0 mm 3 m/s 609 mmHg 83%
    18:00 -10°C° 0 mm 3 m/s 609 mmHg 83%
    19:00 -12°C° 0 mm 3 m/s 608 mmHg 83%
    20:00 -10°C° 0 mm 3 m/s 608 mmHg 82%
    21:00 -10°C° 0 mm 3 m/s 607 mmHg 81%
    22:00 -10°C° 0 mm 3 m/s 607 mmHg 79%
    23:00 -9°C° 0,1 mm 3 m/s 607 mmHg 79%

    Mâine, 14 Decembrie, Joi

    Timp Temperatura Precipitaţii Vânt Presiune Umiditate
    00:00 -10°C° 0,1 mm 4 m/s 607 mmHg 79%
    01:00 -9°C° 0,1 mm 4 m/s 606 mmHg 79%
    02:00 -9°C° 0 mm 4 m/s 606 mmHg 78%
    03:00 -8°C° 0 mm 3 m/s 606 mmHg 77%
    04:00 -8°C° 0 mm 3 m/s 605 mmHg 76%
    05:00 -8°C° 0,1 mm 3 m/s 605 mmHg 77%
    06:00 -8°C° 0,1 mm 3 m/s 605 mmHg 78%
    07:00 -7°C° 0,1 mm 2 m/s 605 mmHg 79%
    08:00 -7°C° 0,2 mm 2 m/s 606 mmHg 81%
    09:00 -6°C° 0,2 mm 2 m/s 607 mmHg 82%
    10:00 -5°C° 0,2 mm 2 m/s 607 mmHg 84%
    11:00 -4°C° 0,4 mm 2 m/s 607 mmHg 86%
    12:00 -2°C° 0,4 mm 1 m/s 607 mmHg 88%
    13:00 -2°C° 0,4 mm 1 m/s 607 mmHg 90%
    14:00 -2°C° 0,5 mm 1 m/s 607 mmHg 91%
    15:00 -3°C° 0,5 mm 1 m/s 606 mmHg 92%
    16:00 -3°C° 0,5 mm 1 m/s 606 mmHg 94%
    17:00 -4°C° 0,2 mm 1 m/s 606 mmHg 93%
    18:00 -6°C° 0,2 mm 2 m/s 605 mmHg 92%
    19:00 -7°C° 0,2 mm 2 m/s 605 mmHg 92%
    20:00 -7°C° 0,3 mm 2 m/s 604 mmHg 92%
    21:00 -7°C° 0,3 mm 2 m/s 604 mmHg 92%
    22:00 -7°C° 0,3 mm 2 m/s 603 mmHg 92%
    23:00 -8°C° 0,3 mm 3 m/s 603 mmHg 92%

    Poimâine, 15 Decembrie, Vineri

    Timp Temperatura Precipitaţii Vânt Presiune Umiditate
    00:00 -8°C° 0,3 mm 3 m/s 602 mmHg 92%
    01:00 -9°C° 0,3 mm 3 m/s 601 mmHg 92%
    02:00 -8°C° 0,8 mm 3 m/s 601 mmHg 93%
    03:00 -7°C° 0,8 mm 2 m/s 601 mmHg 94%
    04:00 -7°C° 0,8 mm 2 m/s 601 mmHg 95%
    05:00 -7°C° 0,9 mm 2 m/s 602 mmHg 95%
    06:00 -7°C° 0,9 mm 2 m/s 602 mmHg 94%
    07:00 -7°C° 0,9 mm 2 m/s 603 mmHg 94%
    08:00 -4°C° 0,1 mm 1 m/s 603 mmHg 93%
    09:00 -4°C° 0,1 mm 1 m/s 603 mmHg 91%
    10:00 -4°C° 0,1 mm 1 m/s 604 mmHg 89%
    11:00 -3°C° 0 mm 1 m/s 604 mmHg 85%
    12:00 -3°C° 0 mm 1 m/s 604 mmHg 81%
    13:00 -2°C° 0 mm 1 m/s 604 mmHg 77%
    14:00 -3°C° 0 mm 1 m/s 603 mmHg 82%
    15:00 -4°C° 0 mm 1 m/s 603 mmHg 86%
    16:00 -7°C° 0 mm 1 m/s 603 mmHg 91%
    17:00 -7°C° 0,1 mm 1 m/s 603 mmHg 90%
    18:00 -8°C° 0,1 mm 1 m/s 603 mmHg 90%
    19:00 -9°C° 0,1 mm 2 m/s 603 mmHg 90%
    20:00 -10°C° 0 mm 2 m/s 603 mmHg 88%
    21:00 -10°C° 0 mm 1 m/s 603 mmHg 86%
    22:00 -10°C° 0 mm 1 m/s 603 mmHg 84%
    23:00 -11°C° 0 mm 1 m/s 603 mmHg 83%

    16 Decembrie, Sâmbătă

    Timp Temperatura Precipitaţii Vânt Presiune Umiditate
    00:00 -11°C° 0 mm 1 m/s 603 mmHg 81%
    01:00 -13°C° 0 mm 2 m/s 603 mmHg 80%
    02:00 -13°C° 0 mm 2 m/s 604 mmHg 81%
    03:00 -13°C° 0 mm 2 m/s 604 mmHg 82%
    04:00 -13°C° 0 mm 2 m/s 604 mmHg 83%
    05:00 -11°C° 0 mm 1 m/s 604 mmHg 83%
    06:00 -11°C° 0 mm 1 m/s 605 mmHg 84%
    07:00 -11°C° 0 mm 1 m/s 605 mmHg 84%
    08:00 -10°C° 0,1 mm 1 m/s 606 mmHg 84%
    09:00 -9°C° 0,1 mm 1 m/s 607 mmHg 84%
    10:00 -8°C° 0,1 mm 1 m/s 608 mmHg 83%
    11:00 -7°C° 0,1 mm 1 m/s 608 mmHg 84%
    12:00 -6°C° 0,1 mm 1 m/s 609 mmHg 84%
    13:00 -6°C° 0,1 mm 2 m/s 609 mmHg 84%
    14:00 -7°C° 0,3 mm 2 m/s 609 mmHg 87%
    15:00 -7°C° 0,3 mm 2 m/s 609 mmHg 90%
    16:00 -8°C° 0,3 mm 2 m/s 609 mmHg 93%
    17:00 -8°C° 0,3 mm 2 m/s 610 mmHg 93%
    18:00 -9°C° 0,3 mm 2 m/s 610 mmHg 94%
    19:00 -9°C° 0,3 mm 2 m/s 610 mmHg 94%
    20:00 -10°C° 0,2 mm 2 m/s 611 mmHg 94%
    21:00 -10°C° 0,2 mm 2 m/s 611 mmHg 94%
    22:00 -10°C° 0,2 mm 2 m/s 612 mmHg 94%
    23:00 -12°C° 0,2 mm 2 m/s 612 mmHg 94%

    17 Decembrie, Duminică

    Timp Temperatura Precipitaţii Vânt Presiune Umiditate
    00:00 -12°C° 0,2 mm 2 m/s 612 mmHg 93%
    01:00 -13°C° 0,2 mm 2 m/s 612 mmHg 93%
    02:00 -12°C° 0,4 mm 2 m/s 612 mmHg 93%
    03:00 -12°C° 0,4 mm 2 m/s 612 mmHg 93%
    04:00 -12°C° 0,4 mm 2 m/s 612 mmHg 93%
    05:00 -12°C° 0,4 mm 2 m/s 613 mmHg 93%
    06:00 -12°C° 0,4 mm 2 m/s 613 mmHg 93%
    07:00 -12°C° 0,4 mm 2 m/s 614 mmHg 93%
    08:00 -12°C° 0,3 mm 2 m/s 614 mmHg 93%
    09:00 -10°C° 0,3 mm 2 m/s 615 mmHg 92%
    10:00 -10°C° 0,3 mm 2 m/s 615 mmHg 91%
    11:00 -10°C° 0,2 mm 2 m/s 616 mmHg 89%
    12:00 -9°C° 0,2 mm 2 m/s 616 mmHg 87%
    13:00 -9°C° 0,2 mm 2 m/s 616 mmHg 85%
    14:00 -10°C° 0,2 mm 2 m/s 616 mmHg 87%
    15:00 -10°C° 0,2 mm 2 m/s 616 mmHg 89%
    16:00 -12°C° 0,2 mm 2 m/s 616 mmHg 91%
    17:00 -12°C° 0,3 mm 2 m/s 616 mmHg 91%
    18:00 -13°C° 0,3 mm 2 m/s 617 mmHg 91%
    19:00 -13°C° 0,3 mm 2 m/s 617 mmHg 92%
    20:00 -14°C° 0,2 mm 2 m/s 617 mmHg 91%
    21:00 -14°C° 0,2 mm 2 m/s 618 mmHg 91%
    22:00 -15°C° 0,2 mm 2 m/s 618 mmHg 91%
    23:00 -15°C° 0 mm 2 m/s 617 mmHg 90%

    18 Decembrie, Luni

    Timp Temperatura Precipitaţii Vânt Presiune Umiditate
    00:00 -16°C° 0 mm 2 m/s 617 mmHg 89%
    01:00 -17°C° 0 mm 2 m/s 617 mmHg 88%
    02:00 -17°C° 0 mm 2 m/s 617 mmHg 87%
    03:00 -17°C° 0 mm 2 m/s 617 mmHg 86%
    04:00 -17°C° 0 mm 2 m/s 617 mmHg 84%
    05:00 -17°C° 0 mm 2 m/s 617 mmHg 82%
    06:00 -17°C° 0 mm 2 m/s 617 mmHg 81%
    07:00 -16°C° 0 mm 2 m/s 618 mmHg 79%
    08:00 -15°C° 0,1 mm 2 m/s 618 mmHg 80%
    09:00 -13°C° 0,1 mm 2 m/s 619 mmHg 82%
    10:00 -10°C° 0,1 mm 2 m/s 620 mmHg 83%
    11:00 -9°C° 0,1 mm 2 m/s 619 mmHg 83%
    12:00 -8°C° 0,1 mm 2 m/s 619 mmHg 83%
    13:00 -7°C° 0,1 mm 2 m/s 619 mmHg 83%
    14:00 -6°C° 0,7 mm 1 m/s 619 mmHg 86%
    15:00 -6°C° 0,7 mm 1 m/s 618 mmHg 89%
    16:00 -6°C° 0,7 mm 1 m/s 618 mmHg 92%
    17:00 -6°C° 1,5 mm 1 m/s 618 mmHg 93%
    18:00 -7°C° 1,5 mm 2 m/s 618 mmHg 94%
    19:00 -7°C° 1,5 mm 2 m/s 618 mmHg 95%
    20:00 -7°C° 1,5 mm 2 m/s 618 mmHg 95%
    21:00 -7°C° 1,5 mm 2 m/s 618 mmHg 96%
    22:00 -6°C° 1,5 mm 2 m/s 618 mmHg 96%
    23:00 -6°C° 0,8 mm 2 m/s 619 mmHg 96%
    Arată mai mult